{"data":{"norad_id":68671,"epoch":"2026-05-25T03:21:11.325024Z","epoch_age_seconds":56786,"freshness":"FRESH","line1":"1 68671U 26077K   26145.13971441  .00013661  00000+0  42456-3 0  9998","line2":"2 68671  97.2863  16.7064 0001432  89.9494 270.1913 15.33455212  6877","mean_motion":15.33455212,"eccentricity":0.0001432,"inclination_deg":97.2863,"raan_deg":16.7064,"arg_perigee_deg":89.9494,"mean_anomaly_deg":270.1913,"bstar":0.00042456,"rev_number":687,"period_min":93.90557929122,"perigee_km":464.53278026944,"apogee_km":466.49280156956,"semimajor_km":6843.6497909195,"source":"CELESTRAK","updated_at":"2026-05-25T13:38:21.993325Z"}}